EW9372 Weather Reports


Display with metric or nautical units.
time (UTC)temp
F
wind
direction
speed
MPH
gust
MPH
rain 1hr
in
rain 24hr
in
rain mn
in
humidity
%
barometer
mb
20210926050019 72 212 4.0 7.0 0.00 0.00 0.00 52 1011.3
20210926045510 72 220 4.0 9.0 0.00 0.00 0.00 52 1011.2
20210926045011 73 201 4.0 9.0 0.00 0.00 0.00 51 1011.2
20210926044510 73 197 3.0 7.0 0.00 0.00 0.00 51 1011.2
20210926044010 73 210 3.0 4.0 0.00 0.00 0.00 51 1011.2
20210926043509 73 190 3.0 4.0 0.00 0.00 0.00 50 1011.2
20210926043007 73 196 3.0 2.0 0.00 0.00 0.00 50 1011.2
20210926041635 74 180 3.0 6.0 0.00 0.00 0.00 49 1011.1
20210926041137 74 190 3.0 6.0 0.00 0.00 0.00 49 1011.2
20210926040636 74 198 3.0 6.0 0.00 0.00 0.00 49 1011.1
20210926040135 75 193 3.0 6.0 0.00 0.00 0.00 49 1011.1
20210926035634 75 205 3.0 7.0 0.00 0.00 0.00 48 1011.1
20210926035129 75 181 3.0 7.0 0.00 0.00 0.00 47 1011.2
20210926034632 76 235 2.0 5.0 0.00 0.00 0.00 47 1011.2
20210926034131 76 206 3.0 6.0 0.00 0.00 0.00 47 1011.1
20210926033627 76 211 3.0 6.0 0.00 0.00 0.00 46 1011.0
20210926033125 77 199 2.0 6.0 0.00 0.00 0.00 46 1010.9
20210926032621 77 205 2.0 5.0 0.00 0.00 0.00 45 1011.0
20210926032122 78 218 2.0 5.0 0.00 0.00 0.00 45 1011.0
20210926031622 78 214 2.0 5.0 0.00 0.00 0.00 44 1010.9
20210926031122 78 205 2.0 3.0 0.00 0.00 0.00 44 1010.9
20210926025931 79 213 2.0 5.0 0.00 0.00 0.00 42 1010.9
20210926025427 80 211 3.0 6.0 0.00 0.00 0.00 42 1010.9
20210926024909 80 200 3.0 6.0 0.00 0.00 0.00 41 1010.8
20210926024410 80 204 3.0 5.0 0.00 0.00 0.00 40 1010.9
20210926023906 81 218 3.0 7.0 0.00 0.00 0.00 40 1010.8
20210926023407 81 175 3.0 7.0 0.00 0.00 0.00 39 1010.8
20210926022857 82 218 3.0 4.0 0.00 0.00 0.00 39 1010.8
20210926022359 82 219 3.0 3.0 0.00 0.00 0.00 38 1010.7
20210926021127 83 213 3.0 6.0 0.00 0.00 0.00 37 1010.9
20210926020627 84 225 3.0 6.0 0.00 0.00 0.00 36 1010.8
20210926020127 84 232 3.0 6.0 0.00 0.00 0.00 36 1010.7
20210926015635 85 211 3.0 4.0 0.00 0.00 0.00 36 1010.7
20210926014351 86 245 3.0 7.0 0.00 0.00 0.00 35 1010.6
20210926013854 86 221 3.0 7.0 0.00 0.00 0.00 34 1010.7
20210926013352 87 250 3.0 7.0 0.00 0.00 0.00 34 1010.7
20210926012852 87 235 4.0 7.0 0.00 0.00 0.00 33 1010.7
20210926012350 87 252 3.0 6.0 0.00 0.00 0.00 33 1010.7
20210926011849 88 234 3.0 6.0 0.00 0.00 0.00 33 1010.6
20210926011353 88 232 3.0 6.0 0.00 0.00 0.00 33 1010.6
20210926010844 89 217 2.0 5.0 0.00 0.00 0.00 32 1010.7
20210926010350 89 213 3.0 5.0 0.00 0.00 0.00 32 1010.7
20210926005835 89 235 2.0 5.0 0.00 0.00 0.00 32 1010.6
20210926005331 89 222 2.0 3.0 0.00 0.00 0.00 32 1010.7
20210926003720 90 237 2.0 7.0 0.00 0.00 0.00 30 1010.8
20210926003222 91 232 3.0 7.0 0.00 0.00 0.00 30 1010.8
20210926002719 91 211 2.0 6.0 0.00 0.00 0.00 29 1010.8
20210926002219 91 245 2.0 6.0 0.00 0.00 0.00 30 1010.8
20210926001717 91 243 2.0 6.0 0.00 0.00 0.00 29 1010.9
20210926001210 92 236 2.0 4.0 0.00 0.00 0.00 28 1010.9
20210926000709 92 225 2.0 5.0 0.00 0.00 0.00 28 1011.0
20210926000211 92 232 3.0 6.0 0.00 0.00 0.00 28 1011.0
20210925235712 93 215 2.0 6.0 0.00 0.00 0.00 27 1011.1
20210925235206 93 239 2.0 4.0 0.00 0.00 0.00 28 1011.1
20210925234707 93 209 2.0 4.0 0.00 0.00 0.00 28 1011.2
20210925234159 93 211 3.0 2.0 0.00 0.00 0.00 27 1011.2
20210925232619 94 275 3.0 9.0 0.00 0.00 0.00 26 1011.1
20210925232118 95 253 3.0 9.0 0.00 0.00 0.00 26 1011.3
20210925231621 95 333 3.0 6.0 0.00 0.00 0.00 26 1011.3
20210925231119 94 205 3.0 6.0 0.00 0.00 0.00 26 1011.3
20210925230613 94 235 2.0 7.0 0.00 0.00 0.00 26 1011.3
20210925230111 94 190 3.0 10.0 0.00 0.00 0.00 27 1011.2
20210925225612 94 21 3.0 10.0 0.00 0.00 0.00 26 1011.4
20210925225114 94 230 2.0 7.0 0.00 0.00 0.00 26 1011.4
20210925224613 94 220 2.0 5.0 0.00 0.00 0.00 27 1011.5
20210925224101 94 235 3.0 6.0 0.00 0.00 0.00 27 1011.4
20210925223601 94 234 2.0 6.0 0.00 0.00 0.00 26 1011.5
20210925223054 94 238 2.0 2.0 0.00 0.00 0.00 27 1011.6
20210925221726 94 316 1.0 4.0 0.00 0.00 0.00 24 1011.6
20210925221224 94 227 1.0 4.0 0.00 0.00 0.00 25 1011.7
20210925220715 94 261 1.0 4.0 0.00 0.00 0.00 25 1011.8
20210925220212 94 19 2.0 4.0 0.00 0.00 0.00 26 1011.8
20210925215709 94 20 2.0 4.0 0.00 0.00 0.00 24 1011.8
20210925215207 94 237 2.0 5.0 0.00 0.00 0.00 26 1011.8
20210925214705 94 46 2.0 5.0 0.00 0.00 0.00 25 1011.9
20210925214207 94 233 2.0 5.0 0.00 0.00 0.00 25 1012.0
20210925213707 94 239 1.0 5.0 0.00 0.00 0.00 26 1012.0
20210925213206 93 243 2.0 5.0 0.00 0.00 0.00 28 1012.0
20210925212703 93 348 2.0 5.0 0.00 0.00 0.00 27 1012.2
20210925212155 93 350 2.0 5.0 0.00 0.00 0.00 27 1012.1
20210925211655 93 236 3.0 7.0 0.00 0.00 0.00 26 1012.2
20210925211157 92 232 3.0 7.0 0.00 0.00 0.00 26 1012.2
20210925210651 92 233 2.0 6.0 0.00 0.00 0.00 28 1012.3
20210925210153 92 315 2.0 6.0 0.00 0.00 0.00 30 1012.6
20210925205654 92 233 2.0 11.0 0.00 0.00 0.00 28 1012.7
20210925205153 92 236 2.0 11.0 0.00 0.00 0.00 28 1012.8
20210925204649 92 256 2.0 5.0 0.00 0.00 0.00 27 1012.9
20210925204151 92 12 2.0 6.0 0.00 0.00 0.00 28 1012.9
20210925203647 93 248 2.0 6.0 0.00 0.00 0.00 27 1012.9
20210925203146 92 232 2.0 4.0 0.00 0.00 0.00 28 1012.9
20210925201636 92 227 2.0 6.0 0.00 0.00 0.00 28 1013.0
20210925201135 92 245 3.0 8.0 0.00 0.00 0.00 30 1013.1
20210925200638 92 208 4.0 10.0 0.00 0.00 0.00 29 1013.1
20210925200138 92 234 4.0 10.0 0.00 0.00 0.00 28 1013.3
20210925195632 92 244 3.0 6.0 0.00 0.00 0.00 28 1013.4
20210925195144 91 256 3.0 4.0 0.00 0.00 0.00 30 1013.4
20210925193855 91 234 2.0 6.0 0.00 0.00 0.00 29 1013.4
20210925193352 91 233 3.0 6.0 0.00 0.00 0.00 28 1013.3
20210925192849 90 205 3.0 8.0 0.00 0.00 0.00 29 1013.4
20210925192350 90 250 3.0 8.0 0.00 0.00 0.00 29 1013.5
20210925191849 90 221 3.0 7.0 0.00 0.00 0.00 29 1013.5
20210925191350 89 238 3.0 7.0 0.00 0.00 0.00 28 1013.5
20210925190848 89 233 3.0 7.0 0.00 0.00 0.00 29 1013.5
20210925190345 89 205 2.0 6.0 0.00 0.00 0.00 29 1013.5
20210925185841 88 211 3.0 7.0 0.00 0.00 0.00 31 1013.6
20210925185344 88 194 4.0 9.0 0.00 0.00 0.00 30 1013.6
20210925184844 87 246 4.0 9.0 0.00 0.00 0.00 31 1013.5
20210925184333 87 229 2.0 7.0 0.00 0.00 0.00 32 1013.6
20210925183827 86 213 2.0 6.0 0.00 0.00 0.00 32 1013.6
20210925183332 86 205 3.0 5.0 0.00 0.00 0.00 33 1013.8
20210925182822 85 180 3.0 6.0 0.00 0.00 0.00 33 1013.7
20210925182322 85 202 2.0 6.0 0.00 0.00 0.00 34 1013.7
20210925181811 84 209 2.0 4.0 0.00 0.00 0.00 34 1013.7
20210925181259 84 211 2.0 2.0 0.00 0.00 0.00 35 1013.8
20210925175811 83 211 2.0 5.0 0.00 0.00 0.00 37 1013.8
20210925175310 82 214 2.0 4.0 0.00 0.00 0.00 37 1013.9
20210925174809 82 205 2.0 5.0 0.00 0.00 0.00 38 1013.7
20210925174302 81 215 3.0 5.0 0.00 0.00 0.00 38 1013.7
20210925173756 80 231 3.0 7.0 0.00 0.00 0.00 38 1013.6
20210925173258 80 244 4.0 9.0 0.00 0.00 0.00 39 1013.6
20210925172756 79 238 5.0 9.0 0.00 0.00 0.00 38 1013.8
20210925172255 79 248 4.0 9.0 0.00 0.00 0.00 39 1013.7
20210925171753 78 200 3.0 8.0 0.00 0.00 0.00 40 1013.6
20210925171252 78 193 4.0 7.0 0.00 0.00 0.00 40 1013.6
20210925170753 78 180 4.0 6.0 0.00 0.00 0.00 40 1013.6
20210925170300 77 211 3.0 4.0 0.00 0.00 0.00 41 1013.6
20210925165027 76 178 3.0 7.0 0.00 0.00 0.00 43 1013.3
20210925164536 75 209 3.0 7.0 0.00 0.00 0.00 43 1013.3
20210925164029 74 202 3.0 6.0 0.00 0.00 0.00 43 1013.2
20210925163525 74 192 3.0 6.0 0.00 0.00 0.00 44 1013.3
20210925163027 73 205 2.0 5.0 0.00 0.00 0.00 45 1013.2
20210925162525 73 203 3.0 7.0 0.00 0.00 0.00 47 1013.3
20210925162026 72 206 3.0 7.0 0.00 0.00 0.00 47 1013.1
20210925161526 72 211 3.0 6.0 0.00 0.00 0.00 48 1013.1
20210925161027 71 165 2.0 6.0 0.00 0.00 0.00 48 1013.2
20210925160526 71 146 2.0 3.0 0.00 0.00 0.00 47 1013.1
20210925154915 70 165 1.0 4.0 0.00 0.00 0.00 46 1013.0
20210925154422 69 196 1.0 4.0 0.00 0.00 0.00 46 1012.8
20210925153914 69 134 1.0 3.0 0.00 0.00 0.00 46 1012.8
20210925153414 68 130 1.0 3.0 0.00 0.00 0.00 46 1012.7
20210925152913 68 169 1.0 3.0 0.00 0.00 0.00 48 1012.7
20210925152414 67 179 1.0 3.0 0.00 0.00 0.00 49 1012.8
20210925151906 67 156 0.0 3.0 0.00 0.00 0.00 49 1012.8
20210925151402 67 175 0.0 0.0 0.00 0.00 0.00 49 1012.8
20210925150013 67 182 1.0 4.0 0.00 0.00 0.00 49 1012.7
20210925145508 67 191 1.0 4.0 0.00 0.00 0.00 50 1012.6
20210925145009 66 141 1.0 3.0 0.00 0.00 0.00 52 1012.6
20210925144508 66 190 1.0 3.0 0.00 0.00 0.00 52 1012.6
20210925144000 65 177 1.0 2.0 0.00 0.00 0.00 55 1012.6
20210925143453 65 175 1.0 0.0 0.00 0.00 0.00 55 1012.5
20210925142009 64 153 0.0 2.0 0.00 0.00 0.00 57 1012.5
20210925141505 64 150 0.0 2.0 0.00 0.00 0.00 57 1012.3
20210925141006 64 145 0.0 2.0 0.00 0.00 0.00 58 1012.2
20210925140457 64 138 0.0 2.0 0.00 0.00 0.00 59 1012.3
20210925135959 64 135 0.0 2.0 0.00 0.00 0.00 61 1012.3
20210925135433 64 148 0.0 2.0 0.00 0.00 0.00 60 1012.3
20210925134931 63 194 0.0 3.0 0.00 0.00 0.00 60 1012.3
20210925134423 63 196 1.0 3.0 0.00 0.00 0.00 60 1012.1
20210925133928 63 198 1.0 3.0 0.00 0.00 0.00 60 1012.3
20210925133420 63 197 1.0 2.0 0.00 0.00 0.00 59 1012.2
20210925132922 63 198 2.0 5.0 0.00 0.00 0.00 59 1012.3
20210925132420 63 198 2.0 5.0 0.00 0.00 0.00 59 1012.3
20210925131921 64 222 2.0 5.0 0.00 0.00 0.00 59 1012.3
20210925131418 64 185 3.0 5.0 0.00 0.00 0.00 58 1012.2
20210925130921 64 213 3.0 3.0 0.00 0.00 0.00 57 1012.2
20210925125350 64 157 3.0 6.0 0.00 0.00 0.00 56 1012.0
20210925124848 64 171 3.0 6.0 0.00 0.00 0.00 55 1012.1
20210925124351 65 196 3.0 6.0 0.00 0.00 0.00 54 1012.2
20210925123849 65 202 3.0 6.0 0.00 0.00 0.00 53 1012.2
20210925123348 65 186 3.0 6.0 0.00 0.00 0.00 51 1012.2
20210925122846 65 200 4.0 9.0 0.00 0.00 0.00 51 1012.2
20210925122345 65 167 4.0 9.0 0.00 0.00 0.00 49 1012.1
20210925121844 65 202 3.0 5.0 0.00 0.00 0.00 49 1012.0
20210925121343 66 215 4.0 9.0 0.00 0.00 0.00 48 1011.9
20210925120844 66 204 4.0 9.0 0.00 0.00 0.00 48 1011.9
20210925120344 66 167 4.0 9.0 0.00 0.00 0.00 48 1011.9
20210925115847 66 209 4.0 7.0 0.00 0.00 0.00 48 1011.8
20210925115344 66 205 5.0 9.0 0.00 0.00 0.00 48 1011.8
20210925114844 66 227 4.0 9.0 0.00 0.00 0.00 48 1011.9
20210925114344 66 184 4.0 7.0 0.00 0.00 0.00 47 1011.8
20210925113843 66 198 3.0 6.0 0.00 0.00 0.00 47 1011.7
20210925113347 66 190 3.0 6.0 0.00 0.00 0.00 47 1011.7
20210925112837 66 209 3.0 5.0 0.00 0.00 0.00 47 1011.6
20210925112337 67 212 3.0 6.0 0.00 0.00 0.00 47 1011.6
20210925111838 67 204 3.0 6.0 0.00 0.00 0.00 47 1011.5
20210925111339 67 203 3.0 6.0 0.00 0.00 0.00 47 1011.6
20210925110834 67 202 3.0 6.0 0.00 0.00 0.00 47 1011.4
20210925110335 67 175 3.0 5.0 0.00 0.00 0.00 48 1011.5
20210925105833 66 172 3.0 5.0 0.00 0.00 0.00 48 1011.3
20210925105332 66 188 3.0 3.0 0.00 0.00 0.00 49 1011.4
20210925104129 67 178 3.0 3.0 0.00 0.00 0.00 49 1011.4
20210925102734 67 217 4.0 11.0 0.00 0.00 0.00 47 1011.5
20210925102234 67 160 4.0 9.0 0.00 0.00 0.00 47 1011.5
20210925101734 67 185 4.0 8.0 0.00 0.00 0.00 47 1011.5
20210925101235 67 184 4.0 6.0 0.00 0.00 0.00 46 1011.4
20210925100740 68 211 4.0 2.0 0.00 0.00 0.00 46 1011.4
20210925095536 68 199 3.0 6.0 0.00 0.00 0.00 46 1011.5
20210925095037 68 202 3.0 6.0 0.00 0.00 0.00 46 1011.5
20210925094537 68 199 3.0 6.0 0.00 0.00 0.00 46 1011.5
20210925094039 69 169 4.0 6.0 0.00 0.00 0.00 46 1011.5
20210925093536 69 190 3.0 6.0 0.00 0.00 0.00 46 1011.5
20210925093034 69 207 3.0 6.0 0.00 0.00 0.00 46 1011.5
20210925092531 69 203 3.0 6.0 0.00 0.00 0.00 46 1011.5
20210925092039 69 188 3.0 2.0 0.00 0.00 0.00 46 1011.5
20210925090650 69 167 3.0 6.0 0.00 0.00 0.00 46 1011.5
20210925090148 69 212 3.0 6.0 0.00 0.00 0.00 46 1011.5
20210925085646 69 156 3.0 6.0 0.00 0.00 0.00 46 1011.5
20210925085142 69 209 4.0 6.0 0.00 0.00 0.00 46 1011.5
20210925084640 70 200 4.0 6.0 0.00 0.00 0.00 46 1011.5
20210925084140 70 215 4.0 4.0 0.00 0.00 0.00 46 1011.4
20210925082819 71 207 4.0 8.0 0.00 0.00 0.00 45 1011.5
20210925082316 71 203 3.0 7.0 0.00 0.00 0.00 45 1011.4
20210925081814 71 186 3.0 7.0 0.00 0.00 0.00 45 1011.3
20210925081313 71 204 3.0 5.0 0.00 0.00 0.00 45 1011.2
20210925080812 71 182 3.0 1.0 0.00 0.00 0.00 45 1011.3
20210925075405 72 198 3.0 6.0 0.00 0.00 0.00 45 1011.1
20210925074900 72 199 3.0 5.0 0.00 0.00 0.00 44 1011.2
20210925074358 73 219 3.0 7.0 0.00 0.00 0.00 44 1011.2
20210925073900 73 208 2.0 7.0 0.00 0.00 0.00 44 1011.2
20210925073351 73 211 2.0 4.0 0.00 0.00 0.00 44 1011.1
20210925072849 74 196 2.0 4.0 0.00 0.00 0.00 44 1011.1
20210925072348 74 210 2.0 4.0 0.00 0.00 0.00 45 1011.1
20210925071841 74 213 2.0 4.0 0.00 0.00 0.00 43 1011.1
20210925071342 75 196 2.0 4.0 0.00 0.00 0.00 42 1011.1
20210925070833 75 190 2.0 4.0 0.00 0.00 0.00 41 1011.1
20210925070336 75 186 2.0 3.0 0.00 0.00 0.00 42 1011.2
20210925065828 75 188 2.0 4.0 0.00 0.00 0.00 41 1011.2
20210925065328 75 190 2.0 4.0 0.00 0.00 0.00 41 1011.2
20210925064825 75 216 2.0 3.0 0.00 0.00 0.00 41 1011.2
20210925064327 75 205 1.0 2.0 0.00 0.00 0.00 41 1011.2
20210925062853 76 159 1.0 3.0 0.00 0.00 0.00 41 1011.0
20210925062344 76 198 1.0 3.0 0.00 0.00 0.00 41 1010.9
20210925061850 76 179 1.0 2.0 0.00 0.00 0.00 41 1010.8
20210925060453 76 144 1.0 3.0 0.00 0.00 0.00 42 1010.8
20210925055954 76 167 1.0 4.0 0.00 0.00 0.00 43 1010.8
20210925055448 76 186 1.0 4.0 0.00 0.00 0.00 43 1010.8
20210925054950 76 205 1.0 3.0 0.00 0.00 0.00 43 1010.8
20210925054454 76 169 1.0 3.0 0.00 0.00 0.00 44 1010.8
20210925053946 77 111 1.0 3.0 0.00 0.00 0.00 44 1010.7
20210925053445 77 173 1.0 4.0 0.00 0.00 0.00 44 1010.9
20210925052947 77 180 2.0 4.0 0.00 0.00 0.00 45 1010.7
20210925052445 77 151 2.0 4.0 0.00 0.00 0.00 45 1010.7
20210925051943 77 203 2.0 5.0 0.00 0.00 0.00 45 1010.8
20210925051443 77 174 2.0 5.0 0.00 0.00 0.00 45 1010.7
20210925050943 77 167 2.0 5.0 0.00 0.00 0.00 45 1010.7
20210925050441 78 182 2.0 4.0 0.00 0.00 0.00 45 1010.6